This is the latest recevied weather packets stored in our database for station/object KC3BHK-2. If no packets are shown the sender has not sent any weather packets the latest 10 day(s).
| Time | Temp. | Humidity | Pressure | Rain* | Wind** | Luminosity | Snow |
|---|---|---|---|---|---|---|---|
| 1778014643 | 27.78° C | - | - | 0 mm | 3.13 m/s, 235° | - | - |
| 1778014338 | 28.33° C | - | - | 0 mm | 6.71 m/s, 177° | - | - |
| 1778014033 | 28.89° C | - | - | 0 mm | 5.81 m/s, 146° | - | - |
| 1778013728 | 28.89° C | - | - | 0 mm | 7.15 m/s, 218° | - | - |
| 1778013423 | 28.89° C | - | - | 0 mm | 4.47 m/s, 174° | - | - |
| 1778013116 | 28.33° C | - | - | 0 mm | 5.36 m/s, 186° | - | - |
| 1778012811 | 28.33° C | - | - | 0 mm | 4.02 m/s, 181° | - | - |
| 1778012507 | 29.44° C | - | - | 0 mm | 5.81 m/s, 194° | - | - |
| 1778012202 | 28.89° C | - | - | 0 mm | 6.71 m/s, 190° | - | - |
| 1778011896 | 27.78° C | - | - | 0 mm | 6.71 m/s, 197° | - | - |
| 1778011591 | 28.33° C | - | - | 0 mm | 4.02 m/s, 169° | - | - |
| 1778011284 | 29.44° C | - | - | 0 mm | 4.92 m/s, 218° | - | - |
| 1778010674 | 28.89° C | - | - | 0 mm | 9.83 m/s, 162° | - | - |
| 1778010370 | 29.44° C | - | - | 0 mm | 9.83 m/s, 146° | - | - |
| 1778010064 | 29.44° C | - | - | 0 mm | 6.71 m/s, 120° | - | - |
| 1778009760 | 29.44° C | - | - | 0 mm | 3.58 m/s, 124° | - | - |
| 1778009452 | 28.33° C | - | - | 0 mm | 5.81 m/s, 131° | - | - |
| 1778009148 | 29.44° C | - | - | 0 mm | 6.26 m/s, 165° | - | - |
| 1778008841 | 28.33° C | - | - | 0 mm | 3.58 m/s, 129° | - | - |
| 1778008536 | 29.44° C | - | - | 0 mm | 6.26 m/s, 174° | - | - |
| 1778008232 | 28.89° C | - | - | 0 mm | 5.81 m/s, 191° | - | - |
| 1778007926 | 28.89° C | - | - | 0 mm | 5.36 m/s, 131° | - | - |
| 1778007618 | 28.89° C | - | - | 0 mm | 4.92 m/s, 210° | - | - |
| 1778007314 | 28.33° C | - | - | 0 mm | 6.26 m/s, 176° | - | - |
| 1778007009 | 28.33° C | - | - | 0 mm | 4.47 m/s, 167° | - | - |
* Rain latest hour (hover to see other rain measurements)
** Current wind speed in m/s (hover to see current wind gust speed)